Time,TemperatureF,DewpointF,PressureIn,WindDirection,WindDirectionDegrees,WindSpeedMPH,WindSpeedGustMPH,Humidity,HourlyPrecipIn,Conditions,Clouds,dailyrainin,SoftwareType,DateUTC
2013-04-23 00:01:00,49.2,39.5,30.20,East,89,0.0,0.0,69,0.00,,---,0.00,VWS V14.00,2013-04-23 04:01:00,
2013-04-23 00:06:00,49.0,39.3,30.20,East,89,0.0,0.0,69,0.00,,---,0.00,VWS V14.00,2013-04-23 04:06:00,
2013-04-23 00:11:00,48.9,39.2,30.20,East,89,0.0,0.0,69,0.00,,---,0.00,VWS V14.00,2013-04-23 04:11:00,
2013-04-23 00:16:00,48.9,39.2,30.20,East,89,0.0,0.0,69,0.00,,---,0.00,VWS V14.00,2013-04-23 04:16:00,
2013-04-23 00:21:00,48.8,39.1,30.20,East,89,0.0,0.0,69,0.00,,---,0.00,VWS V14.00,2013-04-23 04:21:00,
2013-04-23 00:26:00,48.8,39.5,30.20,East,89,0.0,0.0,70,0.00,,---,0.00,VWS V14.00,2013-04-23 04:26:00,
2013-04-23 00:31:00,48.9,38.8,30.20,East,89,0.0,0.0,68,0.00,,---,0.00,VWS V14.00,2013-04-23 04:31:00,
2013-04-23 00:36:00,49.0,39.3,30.20,East,89,0.0,0.0,69,0.00,,---,0.00,VWS V14.00,2013-04-23 04:36:00,
2013-04-23 00:41:00,49.0,38.9,30.20,East,89,0.0,0.0,68,0.00,,---,0.00,VWS V14.00,2013-04-23 04:41:00,
2013-04-23 00:46:00,49.0,38.9,30.20,East,89,0.0,0.0,68,0.00,,---,0.00,VWS V14.00,2013-04-23 04:46:00,
2013-04-23 00:51:00,48.8,39.1,30.19,East,89,0.0,0.0,69,0.00,,---,0.00,VWS V14.00,2013-04-23 04:51:00,
2013-04-23 00:56:00,48.7,38.6,30.19,East,89,0.0,0.0,68,0.00,,---,0.00,VWS V14.00,2013-04-23 04:56:00,
2013-04-23 01:01:00,48.5,38.4,30.19,East,89,0.0,0.0,68,0.00,,---,0.00,VWS V14.00,2013-04-23 05:01:00,
2013-04-23 01:06:00,48.3,38.6,30.19,East,89,0.0,0.0,69,0.00,,---,0.00,VWS V14.00,2013-04-23 05:06:00,
2013-04-23 01:11:00,48.1,38.4,30.19,East,89,0.0,0.0,69,0.00,,---,0.00,VWS V14.00,2013-04-23 05:11:00,
2013-04-23 01:16:00,47.8,38.5,30.19,East,89,0.0,0.0,70,0.00,,---,0.00,VWS V14.00,2013-04-23 05:16:00,
2013-04-23 01:21:00,47.7,38.4,30.19,East,89,0.0,0.0,70,0.00,,---,0.00,VWS V14.00,2013-04-23 05:21:00,
2013-04-23 01:26:00,47.5,38.2,30.19,East,89,0.0,0.0,70,0.00,,---,0.00,VWS V14.00,2013-04-23 05:26:00,
2013-04-23 01:31:00,47.4,38.1,30.19,East,89,0.0,0.0,70,0.00,,---,0.00,VWS V14.00,2013-04-23 05:31:00,
2013-04-23 01:36:00,47.2,38.3,30.19,East,89,0.0,0.0,71,0.00,,---,0.00,VWS V14.00,2013-04-23 05:36:00,
2013-04-23 01:41:00,47.1,38.9,30.19,East,89,0.0,0.0,73,0.00,,---,0.00,VWS V14.00,2013-04-23 05:41:00,
2013-04-23 01:46:00,46.9,38.7,30.19,East,89,0.0,0.0,73,0.00,,---,0.00,VWS V14.00,2013-04-23 05:46:00,
2013-04-23 01:51:00,46.8,39.0,30.19,East,89,0.0,0.0,74,0.00,,---,0.00,VWS V14.00,2013-04-23 05:51:00,
2013-04-23 01:56:00,46.6,38.8,30.19,East,89,0.0,0.0,74,0.00,,---,0.00,VWS V14.00,2013-04-23 05:56:00,
2013-04-23 02:01:00,46.4,38.9,30.18,East,89,0.0,0.0,75,0.00,,---,0.00,VWS V14.00,2013-04-23 06:01:00,
2013-04-23 02:06:00,46.3,38.8,30.18,East,89,0.0,0.0,75,0.00,,---,0.00,VWS V14.00,2013-04-23 06:06:00,
2013-04-23 02:11:00,46.2,38.7,30.19,East,89,0.0,0.0,75,0.00,,---,0.00,VWS V14.00,2013-04-23 06:11:00,
2013-04-23 02:16:00,46.1,38.6,30.18,East,89,0.0,0.0,75,0.00,,---,0.00,VWS V14.00,2013-04-23 06:16:00,
2013-04-23 02:21:00,46.1,38.6,30.18,East,89,0.0,0.0,75,0.00,,---,0.00,VWS V14.00,2013-04-23 06:21:00,
2013-04-23 02:26:00,46.1,38.6,30.18,East,89,0.0,0.0,75,0.00,,---,0.00,VWS V14.00,2013-04-23 06:26:00,
2013-04-23 02:31:00,46.0,38.5,30.18,East,89,0.0,0.0,75,0.00,,---,0.00,VWS V14.00,2013-04-23 06:31:00,
2013-04-23 02:39:00,46.0,38.5,30.18,East,89,0.0,0.0,75,0.00,,---,0.00,VWS V14.00,2013-04-23 06:39:00,
2013-04-23 02:44:00,46.0,38.5,30.17,East,89,0.0,0.0,75,0.00,,---,0.00,VWS V14.00,2013-04-23 06:44:00,
2013-04-23 02:49:00,45.9,38.4,30.17,East,89,0.0,0.0,75,0.00,,---,0.00,VWS V14.00,2013-04-23 06:49:00,
2013-04-23 02:54:00,45.8,38.3,30.17,East,89,0.0,0.0,75,0.00,,---,0.00,VWS V14.00,2013-04-23 06:54:00,
2013-04-23 02:59:00,45.7,38.6,30.17,East,89,0.0,0.0,76,0.00,,---,0.00,VWS V14.00,2013-04-23 06:59:00,
2013-04-23 03:04:00,45.5,38.7,30.17,East,89,0.0,0.0,77,0.00,,---,0.00,VWS V14.00,2013-04-23 07:04:00,
2013-04-23 03:09:00,45.4,38.6,30.17,East,89,0.0,0.0,77,0.00,,---,0.00,VWS V14.00,2013-04-23 07:09:00,
2013-04-23 03:14:00,45.2,38.8,30.17,East,89,0.0,0.0,78,0.00,,---,0.00,VWS V14.00,2013-04-23 07:14:00,
2013-04-23 03:19:00,45.0,38.6,30.17,East,89,0.0,0.0,78,0.00,,---,0.00,VWS V14.00,2013-04-23 07:19:00,
2013-04-23 03:24:00,44.9,38.5,30.17,East,89,0.0,0.0,78,0.00,,---,0.00,VWS V14.00,2013-04-23 07:24:00,
2013-04-23 03:29:00,44.7,38.9,30.17,East,89,0.0,0.0,80,0.00,,---,0.00,VWS V14.00,2013-04-23 07:29:00,
2013-04-23 03:47:00,44.2,38.8,30.17,East,89,0.0,0.0,81,0.00,,---,0.00,VWS V14.00,2013-04-23 07:47:00,
2013-04-23 03:58:00,43.9,38.5,30.17,East,89,0.0,0.0,81,0.00,,---,0.00,VWS V14.00,2013-04-23 07:58:00,
2013-04-23 04:03:00,43.8,38.4,30.17,East,89,0.0,0.0,81,0.00,,---,0.00,VWS V14.00,2013-04-23 08:03:00,
2013-04-23 04:08:00,43.7,38.3,30.17,East,89,0.0,0.0,81,0.00,,---,0.00,VWS V14.00,2013-04-23 08:08:00,
2013-04-23 04:13:00,43.6,38.5,30.17,East,89,0.0,0.0,82,0.00,,---,0.00,VWS V14.00,2013-04-23 08:13:00,
2013-04-23 04:18:00,43.6,38.5,30.17,East,89,0.0,0.0,82,0.00,,---,0.00,VWS V14.00,2013-04-23 08:18:00,
2013-04-23 04:23:00,43.4,38.3,30.17,East,89,0.0,0.0,82,0.00,,---,0.00,VWS V14.00,2013-04-23 08:23:00,
2013-04-23 04:29:00,43.3,38.2,30.17,East,89,0.0,0.0,82,0.00,,---,0.00,VWS V14.00,2013-04-23 08:29:00,
2013-04-23 04:34:00,43.1,38.0,30.17,East,89,0.0,0.0,82,0.00,,---,0.00,VWS V14.00,2013-04-23 08:34:00,
2013-04-23 04:39:00,42.9,38.1,30.17,East,89,0.0,0.0,83,0.00,,---,0.00,VWS V14.00,2013-04-23 08:39:00,
2013-04-23 04:44:00,42.7,37.9,30.17,East,89,0.0,0.0,83,0.00,,---,0.00,VWS V14.00,2013-04-23 08:44:00,
2013-04-23 04:49:00,42.6,38.1,30.17,East,89,0.0,0.0,84,0.00,,---,0.00,VWS V14.00,2013-04-23 08:49:00,
2013-04-23 04:54:00,42.5,38.0,30.17,East,89,0.0,0.0,84,0.00,,---,0.00,VWS V14.00,2013-04-23 08:54:00,
2013-04-23 04:59:00,42.5,38.0,30.17,East,89,0.0,0.0,84,0.00,,---,0.00,VWS V14.00,2013-04-23 08:59:00,
2013-04-23 05:04:00,42.3,37.8,30.17,East,89,0.0,0.0,84,0.00,,---,0.00,VWS V14.00,2013-04-23 09:04:00,
2013-04-23 05:09:00,42.2,37.7,30.17,East,89,0.0,0.0,84,0.00,,---,0.00,VWS V14.00,2013-04-23 09:09:00,
2013-04-23 05:14:00,42.1,37.9,30.17,East,89,0.0,0.0,85,0.00,,---,0.00,VWS V14.00,2013-04-23 09:14:00,
2013-04-23 05:19:00,42.0,37.8,30.18,East,89,0.0,0.0,85,0.00,,---,0.00,VWS V14.00,2013-04-23 09:19:00,
2013-04-23 05:24:00,42.0,38.1,30.18,East,89,0.0,0.0,86,0.00,,---,0.00,VWS V14.00,2013-04-23 09:24:00,
2013-04-23 05:29:00,42.1,38.2,30.18,East,89,0.0,0.0,86,0.00,,---,0.00,VWS V14.00,2013-04-23 09:29:00,
2013-04-23 05:34:00,42.1,38.2,30.17,East,89,0.0,0.0,86,0.00,,---,0.00,VWS V14.00,2013-04-23 09:34:00,
2013-04-23 05:39:00,42.1,38.5,30.17,East,89,0.0,0.0,87,0.00,,---,0.00,VWS V14.00,2013-04-23 09:39:00,
2013-04-23 05:44:00,42.1,38.5,30.17,East,89,0.0,0.0,87,0.00,,---,0.00,VWS V14.00,2013-04-23 09:44:00,
2013-04-23 05:49:00,42.1,38.5,30.17,East,89,0.0,0.0,87,0.00,,---,0.00,VWS V14.00,2013-04-23 09:49:00,
2013-04-23 05:54:00,42.1,38.5,30.17,East,89,0.0,0.0,87,0.00,,---,0.00,VWS V14.00,2013-04-23 09:54:00,
2013-04-23 05:59:00,42.0,38.4,30.17,East,89,0.0,0.0,87,0.00,,---,0.00,VWS V14.00,2013-04-23 09:59:00,
2013-04-23 06:04:00,42.0,38.4,30.17,East,89,0.0,0.0,87,0.00,,---,0.00,VWS V14.00,2013-04-23 10:04:00,
2013-04-23 06:09:00,42.0,38.4,30.17,East,89,0.0,0.0,87,0.00,,---,0.00,VWS V14.00,2013-04-23 10:09:00,
2013-04-23 06:14:00,41.8,38.2,30.18,East,89,0.0,0.0,87,0.00,,---,0.00,VWS V14.00,2013-04-23 10:14:00,
2013-04-23 06:19:00,41.8,38.5,30.18,East,89,0.0,0.0,88,0.00,,---,0.00,VWS V14.00,2013-04-23 10:19:00,
2013-04-23 06:24:00,41.7,38.4,30.18,East,89,0.0,0.0,88,0.00,,---,0.00,VWS V14.00,2013-04-23 10:24:00,
2013-04-23 06:29:00,41.7,38.4,30.18,East,89,0.0,0.0,88,0.00,,---,0.00,VWS V14.00,2013-04-23 10:29:00,
2013-04-23 06:34:00,41.6,38.3,30.18,East,89,0.0,0.0,88,0.00,,---,0.00,VWS V14.00,2013-04-23 10:34:00,
2013-04-23 06:39:00,41.6,38.3,30.19,East,89,0.0,0.0,88,0.00,,---,0.00,VWS V14.00,2013-04-23 10:39:00,
2013-04-23 06:44:00,41.5,38.2,30.19,East,89,0.0,0.0,88,0.00,,---,0.00,VWS V14.00,2013-04-23 10:44:00,
2013-04-23 06:49:00,41.4,38.1,30.18,East,89,0.0,0.0,88,0.00,,---,0.00,VWS V14.00,2013-04-23 10:49:00,
2013-04-23 06:54:00,41.4,38.4,30.18,NNW,328,0.0,0.0,89,0.00,,---,0.00,VWS V14.00,2013-04-23 10:54:00,
2013-04-23 06:59:00,41.3,38.3,30.18,NW,323,0.0,0.0,89,0.00,,---,0.00,VWS V14.00,2013-04-23 10:59:00,
2013-04-23 07:04:00,41.3,38.3,30.19,NW,323,0.0,0.0,89,0.00,,---,0.00,VWS V14.00,2013-04-23 11:04:00,
2013-04-23 07:09:00,41.3,38.3,30.19,NW,323,0.0,0.0,89,0.00,,---,0.00,VWS V14.00,2013-04-23 11:09:00,
2013-04-23 07:14:00,41.4,38.4,30.19,NW,323,0.0,0.0,89,0.00,,---,0.00,VWS V14.00,2013-04-23 11:14:00,
2013-04-23 07:19:00,41.4,38.7,30.19,NW,323,0.0,0.0,90,0.00,,---,0.00,VWS V14.00,2013-04-23 11:19:00,
2013-04-23 07:24:00,41.6,38.9,30.19,NW,323,0.0,0.0,90,0.00,,---,0.00,VWS V14.00,2013-04-23 11:24:00,
2013-04-23 07:29:00,41.8,38.8,30.19,NW,323,0.0,0.0,89,0.00,,---,0.00,VWS V14.00,2013-04-23 11:29:00,
2013-04-23 07:34:00,42.1,39.1,30.19,NW,323,0.0,0.0,89,0.00,,---,0.00,VWS V14.00,2013-04-23 11:34:00,
2013-04-23 07:39:00,42.4,39.7,30.19,SSW,196,0.0,1.0,90,0.00,,---,0.00,VWS V14.00,2013-04-23 11:39:00,
2013-04-23 07:44:00,42.8,40.1,30.20,SSW,196,0.0,1.0,90,0.00,,---,0.00,VWS V14.00,2013-04-23 11:44:00,
2013-04-23 07:49:00,43.4,40.7,30.20,SSW,196,0.0,1.0,90,0.00,,---,0.00,VWS V14.00,2013-04-23 11:49:00,
2013-04-23 07:54:00,44.1,41.1,30.20,SSW,196,0.0,1.0,89,0.00,,---,0.00,VWS V14.00,2013-04-23 11:54:00,
2013-04-23 07:59:00,44.9,41.3,30.20,SSW,196,0.0,1.0,87,0.00,,---,0.00,VWS V14.00,2013-04-23 11:59:00,
2013-04-23 08:04:00,45.6,41.7,30.20,SSW,196,0.0,1.0,86,0.00,,---,0.00,VWS V14.00,2013-04-23 12:04:00,
2013-04-23 08:09:00,46.4,42.5,30.20,SW,229,0.0,1.0,86,0.00,,---,0.00,VWS V14.00,2013-04-23 12:09:00,
2013-04-23 08:14:00,47.1,42.2,30.20,SW,221,0.0,1.0,83,0.00,,---,0.00,VWS V14.00,2013-04-23 12:14:00,
2013-04-23 08:19:00,47.8,42.9,30.20,SW,220,0.0,2.0,83,0.00,,---,0.00,VWS V14.00,2013-04-23 12:19:00,
2013-04-23 08:24:00,48.5,42.6,30.20,SSW,213,0.0,4.0,80,0.00,,---,0.00,VWS V14.00,2013-04-23 12:24:00,
2013-04-23 08:29:00,49.1,42.9,30.20,SSW,213,0.0,3.0,79,0.00,,---,0.00,VWS V14.00,2013-04-23 12:29:00,
2013-04-23 08:34:00,49.6,43.4,30.20,SE,134,0.0,5.0,79,0.00,,---,0.00,VWS V14.00,2013-04-23 12:34:00,
2013-04-23 08:39:00,50.1,43.5,30.20,SE,125,0.0,7.0,78,0.00,,---,0.00,VWS V14.00,2013-04-23 12:39:00,
2013-04-23 08:44:00,50.6,43.7,30.20,East,80,1.0,7.0,77,0.00,,---,0.00,VWS V14.00,2013-04-23 12:44:00,
2013-04-23 08:49:00,51.2,43.9,30.20,ENE,72,3.0,7.0,76,0.00,,---,0.00,VWS V14.00,2013-04-23 12:49:00,
2013-04-23 08:54:00,51.6,44.0,30.20,ENE,73,1.0,7.0,75,0.00,,---,0.00,VWS V14.00,2013-04-23 12:54:00,
2013-04-23 08:59:00,52.0,44.0,30.19,ESE,110,2.0,6.0,74,0.00,,---,0.00,VWS V14.00,2013-04-23 12:59:00,
2013-04-23 09:04:00,52.4,44.7,30.19,ESE,109,2.0,6.0,75,0.00,,---,0.00,VWS V14.00,2013-04-23 13:04:00,
2013-04-23 09:09:00,52.9,44.8,30.19,East,80,2.0,6.0,74,0.00,,---,0.00,VWS V14.00,2013-04-23 13:09:00,
2013-04-23 09:14:00,53.1,45.0,30.20,East,82,4.0,7.0,74,0.00,,---,0.00,VWS V14.00,2013-04-23 13:14:00,
2013-04-23 09:19:00,53.5,45.4,30.20,ENE,73,0.0,7.0,74,0.00,,---,0.00,VWS V14.00,2013-04-23 13:19:00,
2013-04-23 09:24:00,53.9,45.5,30.20,NNE,32,3.0,7.0,73,0.00,,---,0.00,VWS V14.00,2013-04-23 13:24:00,
2013-04-23 09:29:00,54.2,45.4,30.20,ESE,103,1.0,6.0,72,0.00,,---,0.00,VWS V14.00,2013-04-23 13:29:00,
2013-04-23 09:34:00,54.4,45.6,30.20,ENE,59,0.0,7.0,72,0.00,,---,0.00,VWS V14.00,2013-04-23 13:34:00,
2013-04-23 09:39:00,54.7,45.5,30.20,ENE,59,4.0,8.0,71,0.00,,---,0.00,VWS V14.00,2013-04-23 13:39:00,
2013-04-23 09:44:00,55.1,46.2,30.21,ENE,63,3.0,8.0,72,0.00,,---,0.00,VWS V14.00,2013-04-23 13:44:00,
2013-04-23 09:49:00,55.4,45.8,30.21,East,90,0.0,8.0,70,0.00,,---,0.00,VWS V14.00,2013-04-23 13:49:00,
2013-04-23 09:54:00,55.8,45.8,30.21,ENE,66,0.0,8.0,69,0.00,,---,0.00,VWS V14.00,2013-04-23 13:54:00,
2013-04-23 09:59:00,56.2,46.2,30.21,ESE,105,7.0,8.0,69,0.00,,---,0.00,VWS V14.00,2013-04-23 13:59:00,
2013-04-23 10:04:00,56.5,46.5,30.21,ENE,71,2.0,8.0,69,0.00,,---,0.00,VWS V14.00,2013-04-23 14:04:00,
2013-04-23 10:09:00,56.7,46.3,30.21,East,90,0.0,8.0,68,0.00,,---,0.00,VWS V14.00,2013-04-23 14:09:00,
2013-04-23 10:14:00,57.1,46.7,30.21,East,84,1.0,8.0,68,0.00,,---,0.00,VWS V14.00,2013-04-23 14:14:00,
2013-04-23 10:19:00,57.5,46.6,30.21,ENE,63,0.0,8.0,67,0.00,,---,0.00,VWS V14.00,2013-04-23 14:19:00,
2013-04-23 10:24:00,57.7,46.8,30.20,ENE,62,5.0,8.0,67,0.00,,---,0.00,VWS V14.00,2013-04-23 14:24:00,
2013-04-23 10:29:00,58.0,47.1,30.20,East,85,3.0,6.0,67,0.00,,---,0.00,VWS V14.00,2013-04-23 14:29:00,
2013-04-23 10:34:00,58.4,47.1,30.20,ENE,65,3.0,8.0,66,0.00,,---,0.00,VWS V14.00,2013-04-23 14:34:00,
2013-04-23 10:39:00,58.5,48.0,30.20,NE,52,2.0,8.0,68,0.00,,---,0.00,VWS V14.00,2013-04-23 14:39:00,
2013-04-23 10:44:00,59.0,48.5,30.20,East,79,1.0,9.0,68,0.00,,---,0.00,VWS V14.00,2013-04-23 14:44:00,
2013-04-23 10:49:00,59.4,47.7,30.20,NE,42,0.0,9.0,65,0.00,,---,0.00,VWS V14.00,2013-04-23 14:49:00,
2013-04-23 10:54:00,59.7,47.9,30.21,ESE,104,4.0,9.0,65,0.00,,---,0.00,VWS V14.00,2013-04-23 14:54:00,
2013-04-23 10:59:00,59.8,48.4,30.21,SSE,168,5.0,7.0,66,0.00,,---,0.00,VWS V14.00,2013-04-23 14:59:00,
2013-04-23 11:04:00,60.0,48.2,30.20,SE,132,6.0,7.0,65,0.00,,---,0.00,VWS V14.00,2013-04-23 15:04:00,
2013-04-23 11:09:00,60.2,48.0,30.20,ENE,73,1.0,9.0,64,0.00,,---,0.00,VWS V14.00,2013-04-23 15:09:00,
2013-04-23 11:14:00,60.5,47.9,30.20,East,80,0.0,9.0,63,0.00,,---,0.00,VWS V14.00,2013-04-23 15:14:00,
2013-04-23 11:19:00,61.0,48.3,30.21,East,93,1.0,9.0,63,0.00,,---,0.00,VWS V14.00,2013-04-23 15:19:00,
2013-04-23 11:24:00,61.4,49.1,30.21,NW,326,7.0,9.0,64,0.00,,---,0.00,VWS V14.00,2013-04-23 15:24:00,
2013-04-23 11:29:00,61.9,49.2,30.21,NNW,345,4.0,4.0,63,0.00,,---,0.00,VWS V14.00,2013-04-23 15:29:00,
2013-04-23 11:34:00,62.2,49.5,30.21,NE,36,4.0,4.0,63,0.00,,---,0.00,VWS V14.00,2013-04-23 15:34:00,
2013-04-23 11:39:00,62.3,49.1,30.20,ESE,118,5.0,6.0,62,0.00,,---,0.00,VWS V14.00,2013-04-23 15:39:00,
2013-04-23 11:44:00,62.6,49.0,30.20,ESE,118,1.0,8.0,61,0.00,,---,0.00,VWS V14.00,2013-04-23 15:44:00,
2013-04-23 11:49:00,62.5,48.9,30.20,ESE,114,5.0,8.0,61,0.00,,---,0.00,VWS V14.00,2013-04-23 15:49:00,
2013-04-23 11:54:00,62.7,49.5,30.20,SSE,153,2.0,8.0,62,0.00,,---,0.00,VWS V14.00,2013-04-23 15:54:00,
2013-04-23 11:59:00,63.0,49.4,30.20,South,170,5.0,7.0,61,0.00,,---,0.00,VWS V14.00,2013-04-23 15:59:00,
2013-04-23 12:04:00,63.4,49.7,30.20,ENE,77,2.0,7.0,61,0.00,,---,0.00,VWS V14.00,2013-04-23 16:04:00,
2013-04-23 12:09:00,64.0,49.8,30.20,ENE,65,3.0,7.0,60,0.00,,---,0.00,VWS V14.00,2013-04-23 16:09:00,
2013-04-23 12:14:00,64.5,50.3,30.19,NNE,26,2.0,9.0,60,0.00,,---,0.00,VWS V14.00,2013-04-23 16:14:00,
2013-04-23 12:19:00,64.9,50.2,30.19,ENE,60,2.0,9.0,59,0.00,,---,0.00,VWS V14.00,2013-04-23 16:19:00,
2013-04-23 12:24:00,65.2,50.1,30.19,ENE,63,3.0,9.0,58,0.00,,---,0.00,VWS V14.00,2013-04-23 16:24:00,
2013-04-23 12:29:00,65.4,50.7,30.19,NE,52,5.0,7.0,59,0.00,,---,0.00,VWS V14.00,2013-04-23 16:29:00,
2013-04-23 12:34:00,65.6,50.9,30.18,ENE,66,3.0,7.0,59,0.00,,---,0.00,VWS V14.00,2013-04-23 16:34:00,
2013-04-23 12:39:00,65.9,49.3,30.19,ENE,57,2.0,8.0,55,0.00,,---,0.00,VWS V14.00,2013-04-23 16:39:00,
2013-04-23 12:44:00,66.0,49.4,30.19,ESE,113,6.0,8.0,55,0.00,,---,0.00,VWS V14.00,2013-04-23 16:44:00,
2013-04-23 12:49:00,66.3,51.1,30.18,ESE,112,2.0,8.0,58,0.00,,---,0.00,VWS V14.00,2013-04-23 16:49:00,
2013-04-23 12:54:00,66.9,51.2,30.18,East,79,3.0,8.0,57,0.00,,---,0.00,VWS V14.00,2013-04-23 16:54:00,
2013-04-23 12:59:00,67.2,51.0,30.17,NNE,31,2.0,2.0,56,0.00,,---,0.00,VWS V14.00,2013-04-23 16:59:00,
2013-04-23 13:04:00,67.4,49.2,30.17,ESE,120,5.0,8.0,52,0.00,,---,0.00,VWS V14.00,2013-04-23 17:04:00,
2013-04-23 13:09:00,67.4,49.2,30.17,West,269,1.0,8.0,52,0.00,,---,0.00,VWS V14.00,2013-04-23 17:09:00,
2013-04-23 13:14:00,67.8,50.6,30.16,NE,42,4.0,8.0,54,0.00,,---,0.00,VWS V14.00,2013-04-23 17:14:00,
2013-04-23 13:19:00,68.1,50.3,30.16,ESE,106,6.0,8.0,53,0.00,,---,0.00,VWS V14.00,2013-04-23 17:19:00,
2013-04-23 13:24:00,68.1,49.3,30.16,SE,136,1.0,8.0,51,0.00,,---,0.00,VWS V14.00,2013-04-23 17:24:00,
2013-04-23 13:29:00,68.1,50.3,30.16,SSE,152,0.0,7.0,53,0.00,,---,0.00,VWS V14.00,2013-04-23 17:29:00,
2013-04-23 13:34:00,68.6,51.3,30.16,NNW,347,2.0,7.0,54,0.00,,---,0.00,VWS V14.00,2013-04-23 17:34:00,
2013-04-23 13:39:00,68.8,50.5,30.15,NE,47,5.0,8.0,52,0.00,,---,0.00,VWS V14.00,2013-04-23 17:39:00,
2013-04-23 13:44:00,68.8,50.5,30.15,ENE,69,0.0,8.0,52,0.00,,---,0.00,VWS V14.00,2013-04-23 17:44:00,
2013-04-23 13:49:00,69.1,51.8,30.15,NE,34,0.0,8.0,54,0.00,,---,0.00,VWS V14.00,2013-04-23 17:49:00,
2013-04-23 13:54:00,69.5,49.5,30.15,NNE,26,0.0,8.0,49,0.00,,---,0.00,VWS V14.00,2013-04-23 17:54:00,
2013-04-23 13:59:00,69.5,49.5,30.15,NNE,27,1.0,3.0,49,0.00,,---,0.00,VWS V14.00,2013-04-23 17:59:00,
2013-04-23 14:04:00,70.2,50.7,30.15,NE,45,6.0,8.0,50,0.00,,---,0.00,VWS V14.00,2013-04-23 18:04:00,
2013-04-23 14:09:00,70.0,50.0,30.15,NE,49,3.0,8.0,49,0.00,,---,0.00,VWS V14.00,2013-04-23 18:09:00,
2013-04-23 14:14:00,69.9,49.9,30.14,ESE,117,1.0,8.0,49,0.00,,---,0.00,VWS V14.00,2013-04-23 18:14:00,
2013-04-23 14:19:00,69.8,49.8,30.14,North,355,0.0,9.0,49,0.00,,---,0.00,VWS V14.00,2013-04-23 18:19:00,
2013-04-23 14:24:00,70.1,50.1,30.14,SSW,210,3.0,9.0,49,0.00,,---,0.00,VWS V14.00,2013-04-23 18:24:00,
2013-04-23 14:29:00,71.0,50.3,30.14,SSE,148,4.0,6.0,48,0.00,,---,0.00,VWS V14.00,2013-04-23 18:29:00,
2013-04-23 14:34:00,71.3,51.2,30.14,NNE,28,8.0,9.0,49,0.00,,---,0.00,VWS V14.00,2013-04-23 18:34:00,
2013-04-23 14:39:00,71.1,52.1,30.14,ENE,58,4.0,9.0,51,0.00,,---,0.00,VWS V14.00,2013-04-23 18:39:00,
2013-04-23 14:44:00,71.1,50.4,30.13,ENE,78,0.0,9.0,48,0.00,,---,0.00,VWS V14.00,2013-04-23 18:44:00,
2013-04-23 14:49:00,71.3,50.6,30.14,NE,34,0.0,9.0,48,0.00,,---,0.00,VWS V14.00,2013-04-23 18:49:00,
2013-04-23 14:54:00,71.7,51.5,30.14,WNW,300,0.0,9.0,49,0.00,,---,0.00,VWS V14.00,2013-04-23 18:54:00,
2013-04-23 14:59:00,72.1,51.9,30.13,West,279,0.0,6.0,49,0.00,,---,0.00,VWS V14.00,2013-04-23 18:59:00,
2013-04-23 15:04:00,72.2,50.9,30.13,NE,39,2.0,6.0,47,0.00,,---,0.00,VWS V14.00,2013-04-23 19:04:00,
2013-04-23 15:09:00,72.1,49.0,30.13,SE,130,1.0,8.0,44,0.00,,---,0.00,VWS V14.00,2013-04-23 19:09:00,
2013-04-23 15:14:00,72.0,50.7,30.13,East,98,2.0,8.0,47,0.00,,---,0.00,VWS V14.00,2013-04-23 19:14:00,
2013-04-23 15:19:00,72.2,50.3,30.13,NNW,345,2.0,8.0,46,0.00,,---,0.00,VWS V14.00,2013-04-23 19:19:00,
2013-04-23 15:24:00,72.4,51.0,30.13,ESE,123,2.0,8.0,47,0.00,,---,0.00,VWS V14.00,2013-04-23 19:24:00,
2013-04-23 15:29:00,72.3,48.6,30.12,SE,128,4.0,6.0,43,0.00,,---,0.00,VWS V14.00,2013-04-23 19:29:00,
2013-04-23 15:34:00,72.3,50.4,30.12,SE,139,2.0,7.0,46,0.00,,---,0.00,VWS V14.00,2013-04-23 19:34:00,
2013-04-23 15:39:00,72.5,50.6,30.12,North,355,1.0,7.0,46,0.00,,---,0.00,VWS V14.00,2013-04-23 19:39:00,
2013-04-23 15:44:00,72.9,52.6,30.12,North,5,0.0,7.0,49,0.00,,---,0.00,VWS V14.00,2013-04-23 19:44:00,
2013-04-23 15:49:00,73.4,50.2,30.11,East,94,4.0,7.0,44,0.00,,---,0.00,VWS V14.00,2013-04-23 19:49:00,
2013-04-23 15:54:00,73.6,51.0,30.11,SW,216,0.0,7.0,45,0.00,,---,0.00,VWS V14.00,2013-04-23 19:54:00,
2013-04-23 15:59:00,73.7,50.5,30.11,SSE,167,1.0,5.0,44,0.00,,---,0.00,VWS V14.00,2013-04-23 19:59:00,
2013-04-23 16:04:00,73.7,49.8,30.11,SSE,167,1.0,5.0,43,0.00,,---,0.00,VWS V14.00,2013-04-23 20:04:00,
2013-04-23 16:09:00,73.8,51.2,30.10,SSE,167,0.0,5.0,45,0.00,,---,0.00,VWS V14.00,2013-04-23 20:09:00,
2013-04-23 16:14:00,74.1,50.8,30.10,SSE,155,2.0,5.0,44,0.00,,---,0.00,VWS V14.00,2013-04-23 20:14:00,
2013-04-23 16:19:00,74.4,52.3,30.10,SE,127,6.0,9.0,46,0.00,,---,0.00,VWS V14.00,2013-04-23 20:19:00,
2013-04-23 16:24:00,74.3,51.0,30.09,SSE,150,2.0,9.0,44,0.00,,---,0.00,VWS V14.00,2013-04-23 20:24:00,
2013-04-23 16:29:00,74.2,50.9,30.09,SE,140,1.0,6.0,44,0.00,,---,0.00,VWS V14.00,2013-04-23 20:29:00,
2013-04-23 16:34:00,74.1,50.8,30.09,SSW,213,2.0,6.0,44,0.00,,---,0.00,VWS V14.00,2013-04-23 20:34:00,
2013-04-23 16:39:00,74.2,50.9,30.09,SSE,163,1.0,6.0,44,0.00,,---,0.00,VWS V14.00,2013-04-23 20:39:00,
2013-04-23 16:44:00,74.5,51.2,30.09,South,169,1.0,6.0,44,0.00,,---,0.00,VWS V14.00,2013-04-23 20:44:00,
2013-04-23 16:49:00,74.8,50.2,30.09,SW,221,3.0,6.0,42,0.00,,---,0.00,VWS V14.00,2013-04-23 20:49:00,
2013-04-23 16:54:00,74.8,49.5,30.09,SSE,161,1.0,6.0,41,0.00,,---,0.00,VWS V14.00,2013-04-23 20:54:00,
2013-04-23 16:59:00,74.7,50.1,30.09,SE,132,4.0,8.0,42,0.00,,---,0.00,VWS V14.00,2013-04-23 20:59:00,
2013-04-23 17:04:00,74.5,48.6,30.09,SE,137,1.0,8.0,40,0.00,,---,0.00,VWS V14.00,2013-04-23 21:04:00,
2013-04-23 17:09:00,74.4,49.8,30.09,SE,145,4.0,8.0,42,0.00,,---,0.00,VWS V14.00,2013-04-23 21:09:00,
2013-04-23 17:14:00,74.4,49.8,30.09,ENE,65,5.0,8.0,42,0.00,,---,0.00,VWS V14.00,2013-04-23 21:14:00,
2013-04-23 17:19:00,74.2,49.7,30.08,ENE,61,2.0,8.0,42,0.00,,---,0.00,VWS V14.00,2013-04-23 21:19:00,
2013-04-23 17:24:00,74.2,49.7,30.08,NE,39,1.0,8.0,42,0.00,,---,0.00,VWS V14.00,2013-04-23 21:24:00,
2013-04-23 17:29:00,74.4,49.8,30.08,SSE,149,0.0,2.0,42,0.00,,---,0.00,VWS V14.00,2013-04-23 21:29:00,
2013-04-23 17:34:00,74.6,49.4,30.08,SE,134,4.0,5.0,41,0.00,,---,0.00,VWS V14.00,2013-04-23 21:34:00,
2013-04-23 17:39:00,74.7,51.4,30.08,SE,134,0.0,5.0,44,0.00,,---,0.00,VWS V14.00,2013-04-23 21:39:00,
2013-04-23 17:44:00,74.9,50.9,30.08,SE,134,0.0,5.0,43,0.00,,---,0.00,VWS V14.00,2013-04-23 21:44:00,
2013-04-23 17:49:00,75.3,50.0,30.08,SW,233,2.0,5.0,41,0.00,,---,0.00,VWS V14.00,2013-04-23 21:49:00,
2013-04-23 17:54:00,75.4,50.1,30.08,SW,234,1.0,5.0,41,0.00,,---,0.00,VWS V14.00,2013-04-23 21:54:00,
2013-04-23 17:59:00,75.3,50.7,30.08,South,174,0.0,5.0,42,0.00,,---,0.00,VWS V14.00,2013-04-23 21:59:00,
2013-04-23 18:04:00,75.2,49.9,30.08,SW,232,1.0,5.0,41,0.00,,---,0.00,VWS V14.00,2013-04-23 22:04:00,
2013-04-23 18:09:00,74.9,49.6,30.08,SSE,161,1.0,6.0,41,0.00,,---,0.00,VWS V14.00,2013-04-23 22:09:00,
2013-04-23 18:14:00,74.6,49.4,30.08,SSE,160,2.0,6.0,41,0.00,,---,0.00,VWS V14.00,2013-04-23 22:14:00,
2013-04-23 18:19:00,74.4,49.8,30.08,SSE,153,4.0,6.0,42,0.00,,---,0.00,VWS V14.00,2013-04-23 22:19:00,
2013-04-23 18:24:00,74.3,49.8,30.08,SSE,153,0.0,6.0,42,0.00,,---,0.00,VWS V14.00,2013-04-23 22:24:00,
2013-04-23 18:29:00,74.3,49.1,30.08,SSE,153,0.0,2.0,41,0.00,,---,0.00,VWS V14.00,2013-04-23 22:29:00,
2013-04-23 18:34:00,74.2,50.3,30.08,SSE,150,1.0,4.0,43,0.00,,---,0.00,VWS V14.00,2013-04-23 22:34:00,
2013-04-23 18:39:00,74.1,50.2,30.07,SSE,155,1.0,4.0,43,0.00,,---,0.00,VWS V14.00,2013-04-23 22:39:00,
2013-04-23 18:44:00,73.9,50.0,30.07,South,182,0.0,5.0,43,0.00,,---,0.00,VWS V14.00,2013-04-23 22:44:00,
2013-04-23 18:49:00,73.6,49.8,30.07,SSE,166,0.0,6.0,43,0.00,,---,0.00,VWS V14.00,2013-04-23 22:49:00,
2013-04-23 18:54:00,73.5,49.7,30.08,SSE,167,4.0,6.0,43,0.00,,---,0.00,VWS V14.00,2013-04-23 22:54:00,
2013-04-23 18:59:00,73.1,49.9,30.08,SSE,168,1.0,1.0,44,0.00,,---,0.00,VWS V14.00,2013-04-23 22:59:00,
2013-04-23 19:04:00,72.8,50.2,30.08,SSE,168,0.0,2.0,45,0.00,,---,0.00,VWS V14.00,2013-04-23 23:04:00,
2013-04-23 19:09:00,72.5,49.4,30.08,SSE,168,1.0,4.0,44,0.00,,---,0.00,VWS V14.00,2013-04-23 23:09:00,
2013-04-23 19:14:00,72.2,49.1,30.08,SSE,161,1.0,6.0,44,0.00,,---,0.00,VWS V14.00,2013-04-23 23:14:00,
2013-04-23 19:19:00,71.9,49.4,30.08,SW,221,0.0,6.0,45,0.00,,---,0.00,VWS V14.00,2013-04-23 23:19:00,
2013-04-23 19:24:00,71.7,49.8,30.08,SW,221,0.0,6.0,46,0.00,,---,0.00,VWS V14.00,2013-04-23 23:24:00,
2013-04-23 19:29:00,71.5,49.7,30.08,SW,221,0.0,0.0,46,0.00,,---,0.00,VWS V14.00,2013-04-23 23:29:00,
2013-04-23 19:34:00,71.2,50.5,30.08,SW,221,0.0,0.0,48,0.00,,---,0.00,VWS V14.00,2013-04-23 23:34:00,
2013-04-23 19:39:00,70.9,50.2,30.08,SW,220,0.0,0.0,48,0.00,,---,0.00,VWS V14.00,2013-04-23 23:39:00,
2013-04-23 19:44:00,70.5,50.4,30.08,SW,223,0.0,0.0,49,0.00,,---,0.00,VWS V14.00,2013-04-23 23:44:00,
2013-04-23 19:49:00,70.1,50.6,30.08,East,80,0.0,0.0,50,0.00,,---,0.00,VWS V14.00,2013-04-23 23:49:00,
2013-04-23 19:54:00,69.6,50.7,30.08,East,80,0.0,0.0,51,0.00,,---,0.00,VWS V14.00,2013-04-23 23:54:00,
2013-04-23 19:59:00,69.0,50.7,30.08,East,80,0.0,0.0,52,0.00,,---,0.00,VWS V14.00,2013-04-23 23:59:00,
2013-04-23 20:04:00,68.4,51.1,30.08,East,80,0.0,0.0,54,0.00,,---,0.00,VWS V14.00,2013-04-24 00:04:00,
2013-04-23 20:09:00,67.7,51.0,30.08,East,80,0.0,0.0,55,0.00,,---,0.00,VWS V14.00,2013-04-24 00:09:00,
2013-04-23 20:14:00,67.0,51.3,30.09,East,80,0.0,0.0,57,0.00,,---,0.00,VWS V14.00,2013-04-24 00:14:00,
2013-04-23 20:19:00,66.4,51.2,30.09,East,80,0.0,0.0,58,0.00,,---,0.00,VWS V14.00,2013-04-24 00:19:00,
2013-04-23 20:24:00,65.8,51.1,30.09,East,80,0.0,0.0,59,0.00,,---,0.00,VWS V14.00,2013-04-24 00:24:00,
2013-04-23 20:29:00,65.1,50.9,30.09,East,80,0.0,0.0,60,0.00,,---,0.00,VWS V14.00,2013-04-24 00:29:00,
2013-04-23 20:34:00,64.5,50.3,30.09,East,80,0.0,0.0,60,0.00,,---,0.00,VWS V14.00,2013-04-24 00:34:00,
2013-04-23 20:39:00,64.0,50.3,30.09,East,80,0.0,0.0,61,0.00,,---,0.00,VWS V14.00,2013-04-24 00:39:00,
2013-04-23 20:44:00,63.4,50.6,30.09,East,80,0.0,0.0,63,0.00,,---,0.00,VWS V14.00,2013-04-24 00:44:00,
2013-04-23 20:49:00,62.9,50.1,30.09,East,80,0.0,0.0,63,0.00,,---,0.00,VWS V14.00,2013-04-24 00:49:00,
2013-04-23 20:54:00,62.3,50.0,30.09,East,80,0.0,0.0,64,0.00,,---,0.00,VWS V14.00,2013-04-24 00:54:00,
2013-04-23 20:59:00,61.9,50.0,30.09,East,80,0.0,0.0,65,0.00,,---,0.00,VWS V14.00,2013-04-24 00:59:00,
2013-04-23 21:04:00,61.4,50.0,30.09,East,80,0.0,0.0,66,0.00,,---,0.00,VWS V14.00,2013-04-24 01:04:00,
2013-04-23 21:09:00,61.0,50.0,30.09,East,80,0.0,0.0,67,0.00,,---,0.00,VWS V14.00,2013-04-24 01:09:00,
2013-04-23 21:14:00,60.6,50.0,30.09,East,80,0.0,0.0,68,0.00,,---,0.00,VWS V14.00,2013-04-24 01:14:00,
2013-04-23 21:19:00,60.2,50.0,30.09,East,80,0.0,0.0,69,0.00,,---,0.00,VWS V14.00,2013-04-24 01:19:00,
2013-04-23 21:24:00,59.9,50.1,30.09,East,80,0.0,0.0,70,0.00,,---,0.00,VWS V14.00,2013-04-24 01:24:00,
2013-04-23 21:29:00,59.6,50.2,30.10,East,80,0.0,0.0,71,0.00,,---,0.00,VWS V14.00,2013-04-24 01:29:00,
2013-04-23 21:34:00,59.3,49.5,30.10,East,80,0.0,0.0,70,0.00,,---,0.00,VWS V14.00,2013-04-24 01:34:00,
2013-04-23 21:39:00,59.0,49.6,30.10,East,80,0.0,0.0,71,0.00,,---,0.00,VWS V14.00,2013-04-24 01:39:00,
2013-04-23 21:44:00,58.8,49.4,30.10,East,80,0.0,0.0,71,0.00,,---,0.00,VWS V14.00,2013-04-24 01:44:00,
2013-04-23 21:51:00,58.5,49.1,30.10,East,80,0.0,0.0,71,0.00,,---,0.00,VWS V14.00,2013-04-24 01:51:00,
2013-04-23 21:56:00,58.4,49.4,30.11,East,80,0.0,0.0,72,0.00,,---,0.00,VWS V14.00,2013-04-24 01:56:00,
2013-04-23 22:01:00,58.3,49.7,30.11,East,80,0.0,0.0,73,0.00,,---,0.00,VWS V14.00,2013-04-24 02:01:00,
2013-04-23 22:06:00,58.2,49.6,30.11,East,80,0.0,0.0,73,0.00,,---,0.00,VWS V14.00,2013-04-24 02:06:00,
2013-04-23 22:11:00,58.2,50.0,30.11,East,80,0.0,0.0,74,0.00,,---,0.00,VWS V14.00,2013-04-24 02:11:00,
2013-04-23 22:16:00,58.2,50.0,30.12,East,80,0.0,0.0,74,0.00,,---,0.00,VWS V14.00,2013-04-24 02:16:00,
2013-04-23 22:21:00,58.3,50.4,30.12,East,80,0.0,2.0,75,0.00,,---,0.00,VWS V14.00,2013-04-24 02:21:00,
2013-04-23 22:26:00,58.5,50.2,30.12,East,80,0.0,2.0,74,0.00,,---,0.00,VWS V14.00,2013-04-24 02:26:00,
2013-04-23 22:31:00,58.6,50.3,30.11,East,80,0.0,1.0,74,0.00,,---,0.00,VWS V14.00,2013-04-24 02:31:00,
2013-04-23 22:36:00,58.8,50.5,30.12,East,80,0.0,1.0,74,0.00,,---,0.00,VWS V14.00,2013-04-24 02:36:00,
2013-04-23 22:41:00,58.8,50.5,30.11,East,80,0.0,1.0,74,0.00,,---,0.00,VWS V14.00,2013-04-24 02:41:00,
2013-04-23 22:46:00,58.9,50.6,30.11,East,80,0.0,1.0,74,0.00,,---,0.00,VWS V14.00,2013-04-24 02:46:00,
2013-04-23 22:51:00,58.8,50.5,30.12,East,80,0.0,1.0,74,0.00,,---,0.00,VWS V14.00,2013-04-24 02:51:00,
2013-04-23 22:56:00,58.7,50.8,30.12,East,80,0.0,1.0,75,0.00,,---,0.00,VWS V14.00,2013-04-24 02:56:00,
2013-04-23 23:01:00,58.5,51.0,30.12,East,80,0.0,0.0,76,0.00,,---,0.00,VWS V14.00,2013-04-24 03:01:00,
2013-04-23 23:06:00,58.3,50.8,30.12,East,80,0.0,0.0,76,0.00,,---,0.00,VWS V14.00,2013-04-24 03:06:00,
2013-04-23 23:11:00,58.1,50.9,30.12,East,80,0.0,1.0,77,0.00,,---,0.00,VWS V14.00,2013-04-24 03:11:00,
2013-04-23 23:17:00,58.0,50.8,30.12,East,80,0.0,1.0,77,0.00,,---,0.00,VWS V14.00,2013-04-24 03:17:00,
2013-04-23 23:22:00,58.0,50.8,30.12,East,84,2.0,3.0,77,0.00,,---,0.00,VWS V14.00,2013-04-24 03:22:00,
2013-04-23 23:27:00,58.1,50.9,30.12,East,84,0.0,1.0,77,0.00,,---,0.00,VWS V14.00,2013-04-24 03:27:00,
2013-04-23 23:32:00,58.2,51.0,30.12,East,84,0.0,1.0,77,0.00,,---,0.00,VWS V14.00,2013-04-24 03:32:00,
2013-04-23 23:37:00,58.2,51.0,30.12,East,84,0.0,1.0,77,0.00,,---,0.00,VWS V14.00,2013-04-24 03:37:00,
2013-04-23 23:42:00,58.1,50.9,30.12,East,84,0.0,1.0,77,0.00,,---,0.00,VWS V14.00,2013-04-24 03:42:00,
2013-04-23 23:47:00,58.1,50.9,30.13,East,84,0.0,2.0,77,0.00,,---,0.00,VWS V14.00,2013-04-24 03:47:00,
2013-04-23 23:53:00,58.0,51.2,30.13,East,84,0.0,2.0,78,0.00,,---,0.00,VWS V14.00,2013-04-24 03:53:00,
2013-04-23 23:58:00,58.0,51.2,30.13,East,84,0.0,2.0,78,0.00,,---,0.00,VWS V14.00,2013-04-24 03:58:00,